EW7356 Weather Reports


Display with metric or nautical units.
time (UTC)temp
F
wind
direction
speed
MPH
gust
MPH
rain 1hr
in
rain 24hr
in
rain mn
in
humidity
%
barometer
mb
20260906141030 58 23 2.0 6.0 0.00 0.49 0.19 93 1015.9
20260906140530 58 338 2.0 6.0 0.00 0.49 0.19 92 1016.0
20260906140047 58 273 1.0 4.0 0.00 0.49 0.19 94 1016.0
20260906135530 57 312 1.0 4.0 0.00 0.49 0.19 94 1015.9
20260906135031 57 232 1.0 4.0 0.00 0.49 0.19 95 1015.9
20260906134612 57 224 1.0 4.0 0.00 0.49 0.19 94 1015.7
20260906134030 56 326 2.0 4.0 0.00 0.49 0.19 94 1015.7
20260906133533 56 220 2.0 6.0 0.00 0.49 0.19 95 1015.8
20260906133056 56 252 1.0 6.0 0.00 0.49 0.19 95 1015.8
20260906132530 56 273 1.0 5.0 0.00 0.49 0.19 95 1016.0
20260906132031 56 266 1.0 5.0 0.00 0.49 0.19 95 1016.0
20260906131549 56 275 1.0 4.0 0.00 0.49 0.19 95 1016.1
20260906131030 56 22 2.0 4.0 0.00 0.49 0.19 96 1016.1
20260906130530 55 255 0.0 6.0 0.00 0.49 0.19 95 1016.1
20260906130049 55 246 1.0 6.0 0.00 0.49 0.19 96 1015.8
20260906125530 55 244 1.0 4.0 0.01 0.49 0.19 96 1015.8
20260906125031 55 269 2.0 4.0 0.01 0.49 0.19 96 1015.8
20260906124544 55 254 1.0 4.0 0.02 0.49 0.19 96 1015.8
20260906124028 55 232 1.0 4.0 0.03 0.49 0.19 96 1015.8
20260906123527 54 234 1.0 4.0 0.03 0.49 0.19 96 1015.8
20260906123054 54 252 0.0 3.0 0.03 0.49 0.19 96 1015.7
20260906122530 54 0 0.0 2.0 0.03 0.49 0.19 96 1015.6
20260906122030 54 325 0.0 2.0 0.03 0.49 0.19 96 1015.6
20260906121544 54 17 0.0 2.0 0.04 0.49 0.19 96 1015.7
20260906121027 54 0 0.0 2.0 0.05 0.49 0.19 96 1015.7
20260906120529 54 17 0.0 2.0 0.05 0.49 0.19 97 1015.7
20260906120057 54 0 0.0 1.0 0.05 0.49 0.19 97 1015.8
20260906115530 54 0 0.0 3.0 0.04 0.48 0.18 96 1015.8
20260906115029 54 17 1.0 4.0 0.04 0.48 0.18 96 1015.9
20260906114543 54 78 0.0 4.0 0.03 0.47 0.17 97 1015.7
20260906114030 54 0 1.0 4.0 0.03 0.46 0.16 97 1015.9
20260906113528 54 0 0.0 3.0 0.03 0.46 0.16 97 1015.8
20260906113045 54 0 0.0 4.0 0.05 0.46 0.16 97 1015.6
20260906112531 54 0 1.0 4.0 0.06 0.46 0.16 97 1015.5
20260906112028 54 333 0.0 1.0 0.05 0.45 0.15 97 1015.5
20260906111549 54 0 0.0 1.0 0.06 0.45 0.15 97 1015.5
20260906111031 54 0 0.0 1.0 0.06 0.44 0.14 97 1015.5
20260906110527 54 0 0.0 1.0 0.06 0.44 0.14 97 1015.4
20260906110054 54 0 0.0 0.0 0.06 0.44 0.14 97 1015.3
20260906105530 54 0 0.0 0.0 0.06 0.44 0.14 97 1015.2
20260906105032 54 0 0.0 0.0 0.06 0.44 0.14 96 1015.2
20260906104545 54 0 0.0 0.0 0.06 0.44 0.14 96 1015.0
20260906104030 54 0 0.0 0.0 0.06 0.43 0.13 96 1015.1
20260906103529 54 0 0.0 1.0 0.07 0.43 0.13 96 1015.0
20260906103058 54 0 0.0 2.0 0.06 0.41 0.11 97 1015.1
20260906102532 54 0 0.0 2.0 0.05 0.40 0.10 97 1015.0
20260906102028 54 5 0.0 2.0 0.05 0.40 0.10 96 1015.0
20260906101544 54 5 0.0 1.0 0.04 0.39 0.09 96 1014.9
20260906101029 54 0 0.0 0.0 0.03 0.38 0.08 96 1014.8
20260906100532 54 0 0.0 0.0 0.03 0.38 0.08 96 1014.7
20260906100052 54 0 0.0 0.0 0.03 0.38 0.08 96 1014.7
20260906095530 54 0 0.0 0.0 0.03 0.38 0.08 96 1014.7
20260906095030 54 0 0.0 0.0 0.03 0.38 0.08 96 1014.6
20260906094544 54 0 0.0 0.0 0.03 0.38 0.08 96 1014.6
20260906094030 54 0 0.0 1.0 0.02 0.37 0.07 96 1014.6
20260906093534 54 0 0.0 1.0 0.01 0.36 0.06 96 1014.6
20260906093046 54 0 0.0 1.0 0.00 0.35 0.05 96 1014.6
20260906092530 54 0 0.0 1.0 0.00 0.35 0.05 96 1014.6
20260906092034 54 0 0.0 0.0 0.00 0.35 0.05 96 1014.5
20260906091550 54 0 0.0 0.0 0.00 0.35 0.05 96 1014.4
20260906091028 54 0 0.0 0.0 0.00 0.35 0.05 96 1014.2
20260906090528 54 0 0.0 0.0 0.01 0.35 0.05 96 1014.1
20260906090106 54 0 0.0 0.0 0.01 0.35 0.05 96 1014.1
20260906085528 54 0 0.0 1.0 0.01 0.35 0.05 96 1014.0
20260906085028 54 0 0.0 2.0 0.01 0.35 0.05 96 1014.1
20260906084545 55 5 0.0 2.0 0.01 0.35 0.05 96 1014.1
20260906084030 55 0 0.0 2.0 0.01 0.35 0.05 96 1014.1
20260906083531 55 0 0.0 1.0 0.01 0.35 0.05 96 1014.1
20260906083053 55 0 0.0 1.0 0.01 0.35 0.05 96 1014.1
20260906082527 55 0 0.0 1.0 0.01 0.35 0.05 96 1014.1
20260906082033 55 0 0.0 1.0 0.01 0.35 0.05 96 1014.1
20260906081547 55 0 0.0 1.0 0.01 0.35 0.05 96 1014.1
20260906081029 55 0 0.0 1.0 0.01 0.35 0.05 96 1014.1
20260906080529 55 0 0.0 1.0 0.01 0.34 0.04 96 1014.0
20260906080106 55 0 0.0 1.0 0.01 0.34 0.04 96 1013.9
20260906075529 55 0 0.0 1.0 0.01 0.34 0.04 96 1013.9
20260906075029 55 0 0.0 1.0 0.01 0.34 0.04 96 1013.9
20260906074603 55 80 0.0 1.0 0.01 0.34 0.04 96 1013.9
20260906074030 55 0 0.0 1.0 0.02 0.34 0.04 96 1013.9
20260906073527 56 0 0.0 1.0 0.02 0.34 0.04 96 1013.8
20260906073057 56 0 0.0 1.0 0.03 0.34 0.04 96 1013.9
20260906072530 56 0 0.0 1.0 0.03 0.34 0.04 96 1013.9
20260906072030 56 0 0.0 1.0 0.03 0.34 0.04 96 1014.0
20260906071543 56 0 0.0 0.0 0.03 0.34 0.04 96 1013.9
20260906071030 56 0 0.0 0.0 0.03 0.34 0.04 96 1013.9
20260906070530 56 0 0.0 0.0 0.03 0.33 0.03 96 1013.9
20260906070052 56 0 0.0 0.0 0.03 0.33 0.03 96 1014.0
20260906065528 56 0 0.0 2.0 0.03 0.33 0.03 96 1013.8
20260906065028 56 0 0.0 2.0 0.03 0.33 0.03 96 1013.8
20260906064627 57 78 0.0 2.0 0.03 0.33 0.03 96 1013.9
20260906064029 57 0 0.0 1.0 0.02 0.32 0.02 97 1014.0
20260906063530 57 306 0.0 1.0 0.01 0.31 0.01 97 1013.9
20260906063048 57 0 0.0 2.0 0.01 0.31 0.01 97 1013.8
20260906062530 57 0 0.0 4.0 0.01 0.31 0.01 97 1013.8
20260906062030 57 0 1.0 4.0 0.01 0.31 0.01 96 1013.7
20260906061546 57 274 1.0 2.0 0.01 0.31 0.01 97 1013.7
20260906061029 57 0 0.0 2.0 0.01 0.31 0.01 97 1013.7
20260906060532 57 0 0.0 2.0 0.00 0.30 0.00 97 1013.5
20260906060052 57 311 0.0 1.0 0.00 0.30 0.00 96 1013.6
20260906055527 57 0 0.0 0.0 0.00 0.30 0.00 96 1013.6
20260906055030 57 0 0.0 0.0 0.00 0.30 0.00 96 1013.5
20260906054550 57 0 0.0 0.0 0.00 0.30 0.00 96 1013.5
20260906054030 57 0 0.0 1.0 0.00 0.30 0.00 96 1013.7
20260906053527 57 0 0.0 1.0 0.00 0.30 0.00 96 1013.7
20260906053043 57 0 0.0 1.0 0.00 0.30 0.00 96 1013.7
20260906052535 57 0 0.0 1.0 0.00 0.30 0.00 96 1013.7
20260906052028 57 0 0.0 1.0 0.00 0.30 0.00 96 1013.8
20260906051555 57 0 0.0 0.0 0.00 0.30 0.00 96 1013.7
20260906051033 57 0 0.0 1.0 0.00 0.30 0.00 96 1013.7
20260906050528 57 0 0.0 1.0 0.00 0.30 0.00 96 1013.7
20260906045529 57 0 0.0 1.0 0.00 0.30 0.00 96 1013.8
20260906045030 57 0 0.0 1.0 0.00 0.30 0.00 96 1013.7
20260906044551 57 0 0.0 1.0 0.00 0.30 0.00 96 1013.8
20260906044113 57 0 0.0 2.0 0.00 0.30 0.00 96 1013.8
20260906043532 57 0 0.0 2.0 0.00 0.30 0.00 96 1013.9
20260906043050 57 0 0.0 1.0 0.00 0.30 0.00 96 1013.8
20260906042529 57 311 0.0 1.0 0.00 0.30 0.00 96 1013.9
20260906042030 57 0 0.0 1.0 0.00 0.30 0.00 96 1013.8
20260906041540 57 0 0.0 1.0 0.00 0.30 0.00 96 1013.8
20260906041030 57 0 0.0 0.0 0.00 0.30 0.00 96 1013.8
20260906040529 57 0 0.0 0.0 0.00 0.30 0.00 96 1013.8
20260906040053 57 0 0.0 0.0 0.00 0.30 0.00 96 1013.7
20260906035531 57 0 0.0 0.0 0.00 0.30 0.30 96 1013.7
20260906035029 57 0 0.0 0.0 0.00 0.30 0.30 96 1013.6
20260906034606 57 0 0.0 1.0 0.00 0.30 0.30 96 1013.7
20260906034031 57 0 0.0 1.0 0.00 0.30 0.30 96 1013.6
20260906033530 57 0 0.0 1.0 0.00 0.30 0.30 96 1013.7
20260906033045 57 0 0.0 1.0 0.00 0.30 0.30 96 1013.5
20260906032529 57 0 0.0 1.0 0.00 0.30 0.30 96 1013.6
20260906032030 57 0 0.0 0.0 0.00 0.30 0.30 96 1013.5
20260906031552 57 0 0.0 0.0 0.00 0.30 0.30 96 1013.4
20260906031029 57 0 0.0 0.0 0.00 0.30 0.30 96 1013.5
20260906030533 57 0 0.0 0.0 0.00 0.30 0.30 96 1013.3
20260906030050 57 0 0.0 1.0 0.00 0.30 0.30 96 1013.2
20260906025530 57 0 0.0 2.0 0.00 0.30 0.30 96 1013.3
20260906025027 57 0 0.0 2.0 0.00 0.30 0.30 96 1013.4
20260906024544 57 0 0.0 2.0 0.00 0.30 0.30 96 1013.3
20260906024030 57 0 0.0 2.0 0.00 0.30 0.30 96 1013.4
20260906023530 57 0 0.0 1.0 0.00 0.30 0.30 96 1013.4
20260906023043 57 0 0.0 1.0 0.00 0.30 0.30 96 1013.3
20260906022532 57 215 0.0 1.0 0.00 0.30 0.30 96 1013.4
20260906022030 57 0 0.0 1.0 0.00 0.30 0.30 96 1013.5
20260906021543 57 0 0.0 1.0 0.01 0.30 0.30 96 1013.6
20260906021029 57 0 0.0 3.0 0.01 0.30 0.30 96 1013.5
20260906020529 57 0 0.0 3.0 0.01 0.30 0.30 96 1013.4
20260906020058 57 0 1.0 3.0 0.01 0.30 0.30 95 1013.5
20260906015529 57 0 0.0 0.0 0.02 0.30 0.30 96 1013.6
20260906015029 57 0 0.0 0.0 0.02 0.30 0.30 96 1013.5
20260906014544 57 0 0.0 0.0 0.02 0.30 0.30 95 1013.6
20260906014029 57 0 0.0 0.0 0.02 0.30 0.30 95 1013.6
20260906013530 57 0 0.0 0.0 0.02 0.30 0.30 95 1013.6
20260906013058 57 0 0.0 0.0 0.02 0.30 0.30 95 1013.6
20260906012529 57 0 0.0 0.0 0.02 0.30 0.30 95 1013.7
20260906012029 57 0 0.0 0.0 0.03 0.30 0.30 95 1013.7
20260906011546 57 0 0.0 0.0 0.03 0.29 0.29 95 1013.6
20260906011030 57 0 0.0 0.0 0.04 0.29 0.29 95 1013.6
20260906010529 57 0 0.0 0.0 0.05 0.29 0.29 95 1013.6
20260906010049 57 0 0.0 0.0 0.05 0.29 0.29 95 1013.5
20260906005527 57 0 0.0 0.0 0.04 0.28 0.28 95 1013.5
20260906005030 57 0 0.0 0.0 0.04 0.28 0.28 95 1013.4
20260906004540 57 0 0.0 0.0 0.04 0.28 0.28 95 1013.5
20260906004027 57 0 0.0 0.0 0.04 0.28 0.28 95 1013.4
20260906003529 57 0 0.0 2.0 0.04 0.28 0.28 95 1013.3
20260906003050 57 0 0.0 2.0 0.04 0.28 0.28 94 1013.3
20260906002531 58 261 0.0 2.0 0.03 0.27 0.27 94 1013.2
20260906002029 58 261 0.0 2.0 0.03 0.27 0.27 94 1013.2
20260906001548 58 261 0.0 2.0 0.03 0.26 0.26 94 1013.2
20260906001027 58 0 0.0 4.0 0.05 0.25 0.25 94 1013.2
20260906000530 58 274 0.0 4.0 0.06 0.24 0.24 94 1013.1
20260906000052 58 60 1.0 4.0 0.11 0.24 0.24 94 1013.0
20260905235530 58 15 0.0 3.0 0.19 0.24 0.24 94 1012.9
20260905235030 58 57 1.0 3.0 0.24 0.24 0.24 93 1012.9
20260905234618 59 241 0.0 3.0 0.24 0.24 0.24 93 1012.9
20260905234030 59 29 0.0 5.0 0.24 0.24 0.24 93 1013.0
20260905233530 59 13 0.0 5.0 0.24 0.24 0.24 93 1012.9
20260905233050 59 0 0.0 4.0 0.24 0.24 0.24 93 1012.9
20260905232529 59 279 1.0 3.0 0.24 0.24 0.24 93 1012.7
20260905232029 59 221 0.0 4.0 0.23 0.23 0.23 92 1012.5
20260905231548 60 0 0.0 4.0 0.22 0.22 0.22 92 1012.5
20260905231028 60 0 0.0 8.0 0.20 0.20 0.20 91 1012.5
20260905230530 60 0 2.0 8.0 0.18 0.18 0.18 91 1012.5
20260905230045 61 59 0.0 10.0 0.12 0.12 0.12 89 1012.6
20260905225529 61 51 2.0 10.0 0.04 0.04 0.04 88 1012.6
20260905225029 62 336 2.0 9.0 0.00 0.00 0.00 86 1012.7
20260905224552 62 347 3.0 9.0 0.00 0.00 0.00 85 1012.3
20260905224029 63 0 1.0 4.0 0.00 0.00 0.00 85 1011.9
20260905223529 63 312 1.0 4.0 0.00 0.00 0.00 84 1012.0
20260905223052 63 262 1.0 3.0 0.00 0.00 0.00 83 1011.9
20260905222531 64 252 1.0 4.0 0.00 0.00 0.00 83 1011.8
20260905222027 64 248 0.0 4.0 0.00 0.00 0.00 83 1011.8
20260905221543 64 0 1.0 4.0 0.00 0.00 0.00 82 1011.8
20260905221030 65 221 1.0 4.0 0.00 0.00 0.00 81 1011.8
20260905220529 65 224 1.0 4.0 0.00 0.00 0.00 80 1011.8
20260905220044 66 226 1.0 4.0 0.00 0.00 0.00 80 1011.7
20260905215530 66 0 0.0 0.0 0.00 0.00 0.00 79 1011.6
20260905215030 67 0 0.0 1.0 0.00 0.00 0.00 79 1011.8
20260905214539 67 0 0.0 2.0 0.00 0.00 0.00 77 1011.7
20260905214029 67 0 0.0 2.0 0.00 0.00 0.00 75 1011.6
20260905213530 68 0 0.0 2.0 0.00 0.00 0.00 75 1011.6
20260905213047 68 0 0.0 1.0 0.00 0.00 0.00 74 1011.5
20260905212527 68 0 0.0 2.0 0.00 0.00 0.00 75 1011.3
20260905212029 69 0 0.0 3.0 0.00 0.00 0.00 73 1011.4
20260905211725 69 101 0.0 3.0 0.00 0.00 0.00 72 1011.3
20260905211029 69 76 0.0 3.0 0.00 0.00 0.00 72 1011.3
20260905210529 69 0 1.0 3.0 0.00 0.00 0.00 72 1011.3
20260905210101 69 90 1.0 3.0 0.00 0.00 0.00 73 1011.3
20260905205529 69 0 0.0 4.0 0.00 0.00 0.00 75 1011.2
20260905205030 68 53 0.0 4.0 0.00 0.00 0.00 78 1011.2
20260905204554 68 0 1.0 3.0 0.00 0.00 0.00 77 1011.1
20260905204029 68 37 1.0 3.0 0.00 0.00 0.00 77 1011.1
20260905203530 69 305 1.0 3.0 0.00 0.00 0.00 78 1011.1
20260905203102 69 85 0.0 5.0 0.00 0.00 0.00 77 1011.0
20260905202530 69 0 0.0 5.0 0.00 0.00 0.00 76 1011.2
20260905202029 69 348 0.0 5.0 0.00 0.00 0.00 76 1011.2
20260905201540 69 0 1.0 5.0 0.00 0.00 0.00 75 1011.1
20260905201029 68 0 1.0 5.0 0.00 0.00 0.00 78 1011.1
20260905200531 68 314 2.0 5.0 0.00 0.00 0.00 75 1011.1
20260905200129 68 338 1.0 4.0 0.00 0.00 0.00 78 1011.1
20260905195529 68 283 1.0 4.0 0.00 0.00 0.00 81 1011.1
20260905195032 67 313 1.0 4.0 0.00 0.00 0.00 83 1010.9
20260905194547 66 45 0.0 2.0 0.00 0.00 0.00 85 1011.0
20260905194027 66 0 0.0 0.0 0.00 0.00 0.00 87 1010.9
20260905193528 65 0 0.0 2.0 0.00 0.00 0.00 86 1010.9
20260905193043 65 0 0.0 2.0 0.00 0.00 0.00 84 1011.0
20260905192529 65 0 0.0 4.0 0.00 0.00 0.00 84 1011.0
20260905192030 66 348 1.0 5.0 0.00 0.00 0.00 83 1011.1
20260905191542 66 339 1.0 5.0 0.00 0.00 0.00 82 1011.1
20260905191030 66 82 1.0 5.0 0.00 0.00 0.00 82 1011.1
20260905190529 66 360 1.0 5.0 0.00 0.00 0.00 82 1011.2
20260905190049 66 71 1.0 4.0 0.00 0.00 0.00 81 1011.1
20260905185529 66 0 1.0 3.0 0.00 0.00 0.00 81 1011.0
20260905185031 66 153 0.0 3.0 0.00 0.00 0.00 82 1011.1
20260905184557 66 0 0.0 3.0 0.00 0.00 0.00 82 1011.0
20260905184028 66 0 1.0 5.0 0.00 0.00 0.00 81 1010.9
20260905183529 66 196 1.0 6.0 0.00 0.00 0.00 80 1010.9
20260905183045 67 194 1.0 7.0 0.00 0.00 0.00 80 1010.8
20260905182531 67 42 1.0 7.0 0.00 0.00 0.00 79 1010.9
20260905182030 67 278 1.0 4.0 0.00 0.00 0.00 80 1010.8
20260905181553 67 0 1.0 4.0 0.00 0.00 0.00 79 1010.8
20260905181029 68 0 1.0 9.0 0.00 0.00 0.00 77 1010.8
20260905180529 69 325 1.0 9.0 0.00 0.00 0.00 75 1010.8
20260905180049 69 98 1.0 4.0 0.00 0.00 0.00 77 1010.7
20260905175530 69 28 0.0 6.0 0.00 0.00 0.00 73 1010.7
20260905175028 70 153 0.0 6.0 0.00 0.00 0.00 72 1010.8
20260905174548 70 58 2.0 6.0 0.00 0.00 0.00 67 1010.7
20260905174028 70 0 1.0 5.0 0.00 0.00 0.00 67 1010.6
20260905173529 70 0 2.0 5.0 0.00 0.00 0.00 67 1010.6
20260905173052 71 11 1.0 4.0 0.00 0.00 0.00 65 1010.5
20260905172530 70 42 1.0 4.0 0.00 0.00 0.00 68 1010.4
20260905172030 70 159 1.0 6.0 0.00 0.00 0.00 67 1010.4
20260905171555 70 30 0.0 7.0 0.00 0.00 0.00 68 1010.4
20260905171034 70 54 2.0 7.0 0.00 0.00 0.00 67 1010.4
20260905170529 70 0 1.0 7.0 0.00 0.00 0.00 69 1010.5
20260905170101 70 43 2.0 6.0 0.00 0.00 0.00 68 1010.5
20260905165534 69 293 2.0 6.0 0.00 0.00 0.00 69 1010.6
20260905165030 69 244 2.0 8.0 0.00 0.00 0.00 69 1010.5
20260905164549 69 22 2.0 8.0 0.00 0.00 0.00 68 1010.5
20260905164028 69 340 2.0 6.0 0.00 0.00 0.00 68 1010.5
20260905163528 69 253 1.0 5.0 0.00 0.00 0.00 68 1010.4
20260905163052 69 5 2.0 5.0 0.00 0.00 0.00 68 1010.6
20260905162529 69 329 1.0 11.0 0.00 0.00 0.00 70 1010.6
20260905162029 68 350 1.0 11.0 0.00 0.00 0.00 68 1010.6
20260905161550 69 342 1.0 10.0 0.00 0.00 0.00 69 1010.6
20260905161032 69 5 3.0 10.0 0.00 0.00 0.00 69 1010.5
20260905160528 69 355 3.0 11.0 0.00 0.00 0.00 68 1010.7
20260905160058 70 262 2.0 11.0 0.00 0.00 0.00 68 1010.6
20260905155530 70 286 2.0 8.0 0.00 0.00 0.00 68 1010.7
20260905155028 70 70 2.0 8.0 0.00 0.00 0.00 68 1010.7
20260905154556 70 360 2.0 7.0 0.00 0.00 0.00 69 1010.7
20260905154029 69 0 2.0 8.0 0.00 0.00 0.00 71 1010.6
20260905153530 69 360 2.0 8.0 0.00 0.00 0.00 69 1010.7
20260905153054 70 69 1.0 10.0 0.00 0.00 0.00 68 1010.6
20260905152527 70 297 3.0 10.0 0.00 0.00 0.00 69 1010.7
20260905152030 70 346 4.0 10.0 0.00 0.00 0.00 69 1010.7
20260905151552 69 302 3.0 8.0 0.00 0.00 0.00 69 1010.7
20260905151029 69 0 1.0 10.0 0.00 0.00 0.00 71 1010.7
20260905150531 69 342 2.0 10.0 0.00 0.00 0.00 71 1010.7
20260905150048 68 329 2.0 7.0 0.00 0.00 0.00 73 1010.6
20260905145534 68 30 1.0 10.0 0.00 0.00 0.00 73 1010.7
20260905145030 67 221 2.0 10.0 0.00 0.00 0.00 74 1010.7
20260905144544 67 348 3.0 10.0 0.00 0.00 0.00 76 1010.8
20260905144029 67 53 3.0 9.0 0.00 0.00 0.00 74 1010.8
20260905143532 67 323 1.0 9.0 0.00 0.00 0.00 76 1010.8
20260905143102 67 347 2.0 10.0 0.00 0.00 0.00 73 1010.8
20260905142527 67 326 4.0 11.0 0.00 0.00 0.00 73 1010.8
20260905142029 67 324 3.0 11.0 0.00 0.00 0.00 74 1010.7
20260905141550 67 5 3.0 11.0 0.00 0.00 0.00 76 1010.7